Index of /20260422/WXO-DD/model_gdps/15km/00/073
Name Last modified Size Description
Parent Directory -
20260422T00Z_MSC_GDPS_AirTemp_AGL-120m_LatLon0.15_PT073H.grib2 2026-04-22 04:13 908K
20260422T00Z_MSC_GDPS_AirTemp_AGL-2m_LatLon0.15_PT073H.grib2 2026-04-22 04:13 1.0M
20260422T00Z_MSC_GDPS_AirTemp_AGL-40m_LatLon0.15_PT073H.grib2 2026-04-22 04:13 811K
20260422T00Z_MSC_GDPS_AirTemp_AGL-80m_LatLon0.15_PT073H.grib2 2026-04-22 04:13 918K
20260422T00Z_MSC_GDPS_Albedo_Sfc_LatLon0.15_PT073H.grib2 2026-04-22 04:13 250K
20260422T00Z_MSC_GDPS_ConvectivePrecip-Accum_Sfc_LatLon0.15_PT073H.grib2 2026-04-22 04:13 3.2M
20260422T00Z_MSC_GDPS_DewPointDepression_AGL-2m_LatLon0.15_PT073H.grib2 2026-04-22 04:13 751K
20260422T00Z_MSC_GDPS_DewPoint_AGL-2m_LatLon0.15_PT073H.grib2 2026-04-22 04:13 602K
20260422T00Z_MSC_GDPS_DownwardLongwaveRadiationFlux-Accum_Sfc_LatLon0.15_PT073H.grib2 2026-04-22 04:13 911K
20260422T00Z_MSC_GDPS_DownwardShortwaveRadiationFlux-Accum_Sfc_LatLon0.15_PT073H.grib2 2026-04-22 04:13 1.1M
20260422T00Z_MSC_GDPS_FreezingRain-Accum1h_Sfc_LatLon0.15_PT073H.grib2 2026-04-22 04:13 45K
20260422T00Z_MSC_GDPS_FreezingRain-Accum_Sfc_LatLon0.15_PT073H.grib2 2026-04-22 04:13 285K
20260422T00Z_MSC_GDPS_IcePellets-Accum1h_Sfc_LatLon0.15_PT073H.grib2 2026-04-22 04:13 24K
20260422T00Z_MSC_GDPS_IcePellets-Accum_Sfc_LatLon0.15_PT073H.grib2 2026-04-22 04:13 104K
20260422T00Z_MSC_GDPS_LatentHeatNetFlux_Sfc_LatLon0.15_PT073H.grib2 2026-04-22 04:13 656K
20260422T00Z_MSC_GDPS_NetLongwaveRadiationFlux-Accum_Sfc_LatLon0.15_PT073H.grib2 2026-04-22 04:13 968K
20260422T00Z_MSC_GDPS_NetShortwaveRadiationFlux-Accum_Sfc_LatLon0.15_PT073H.grib2 2026-04-22 04:13 1.1M
20260422T00Z_MSC_GDPS_O3MixingRatio_LatLon0.15_PT073H.grib2 2026-04-22 04:58 2.3M
20260422T00Z_MSC_GDPS_O3_EAtm_LatLon0.15_PT073H.grib2 2026-04-22 04:58 2.5M
20260422T00Z_MSC_GDPS_PlanetaryBoundaryLayerHeight_Sfc_LatLon0.15_PT073H.grib2 2026-04-22 04:13 2.4M
20260422T00Z_MSC_GDPS_Precip-Accum1h_Sfc_LatLon0.15_PT073H.grib2 2026-04-22 04:13 3.2M
20260422T00Z_MSC_GDPS_Precip-Accum_Sfc_LatLon0.15_PT073H.grib2 2026-04-22 04:13 4.8M
20260422T00Z_MSC_GDPS_PrecipRate_Sfc_LatLon0.15_PT073H.grib2 2026-04-22 04:13 2.9M
20260422T00Z_MSC_GDPS_Pressure_MSL_LatLon0.15_PT073H.grib2 2026-04-22 04:13 822K
20260422T00Z_MSC_GDPS_Pressure_Sfc_LatLon0.15_PT073H.grib2 2026-04-22 04:13 1.1M
20260422T00Z_MSC_GDPS_RadiativeTemp_Sfc_LatLon0.15_PT073H.grib2 2026-04-22 04:13 656K
20260422T00Z_MSC_GDPS_Rain-Accum1h_Sfc_LatLon0.15_PT073H.grib2 2026-04-22 04:13 1.4M
20260422T00Z_MSC_GDPS_Rain-Accum_Sfc_LatLon0.15_PT073H.grib2 2026-04-22 04:13 3.9M
20260422T00Z_MSC_GDPS_RelativeHumidity_AGL-2m_LatLon0.15_PT073H.grib2 2026-04-22 04:13 1.0M
20260422T00Z_MSC_GDPS_Runoff-Accum_Sfc_LatLon0.15_PT073H.grib2 2026-04-22 04:13 97K
20260422T00Z_MSC_GDPS_SensibleHeatNetFlux_Sfc_LatLon0.15_PT073H.grib2 2026-04-22 04:13 444K
20260422T00Z_MSC_GDPS_Snow-Accum1h_Sfc_LatLon0.15_PT073H.grib2 2026-04-22 04:13 1.1M
20260422T00Z_MSC_GDPS_Snow-Accum_Sfc_LatLon0.15_PT073H.grib2 2026-04-22 04:13 1.9M
20260422T00Z_MSC_GDPS_SnowDepth_Sfc_LatLon0.15_PT073H.grib2 2026-04-22 04:13 1.8M
20260422T00Z_MSC_GDPS_SoilTemp_DBS-0to10cm_LatLon0.15_PT073H.grib2 2026-04-22 04:13 505K
20260422T00Z_MSC_GDPS_SoilTemp_Sfc_LatLon0.15_PT073H.grib2 2026-04-22 04:13 561K
20260422T00Z_MSC_GDPS_SoilVolumetricWaterContent_DBS-0to10cm_LatLon0.15_PT073H.grib2 2026-04-22 04:13 560K
20260422T00Z_MSC_GDPS_SoilVolumetricWaterContent_DBS-0to1cm_LatLon0.15_PT073H.grib2 2026-04-22 04:13 655K
20260422T00Z_MSC_GDPS_SpecificHumidity_AGL-120m_LatLon0.15_PT073H.grib2 2026-04-22 04:13 1.1M
20260422T00Z_MSC_GDPS_SpecificHumidity_AGL-2m_LatLon0.15_PT073H.grib2 2026-04-22 04:13 1.2M
20260422T00Z_MSC_GDPS_SpecificHumidity_AGL-40m_LatLon0.15_PT073H.grib2 2026-04-22 04:13 1.1M
20260422T00Z_MSC_GDPS_SpecificHumidity_AGL-80m_LatLon0.15_PT073H.grib2 2026-04-22 04:13 1.1M
20260422T00Z_MSC_GDPS_SpecificHumidity_Sfc_LatLon0.15_PT073H.grib2 2026-04-22 04:13 628K
20260422T00Z_MSC_GDPS_TotalCloudCover_Sfc_LatLon0.15_PT073H.grib2 2026-04-22 04:13 832K
20260422T00Z_MSC_GDPS_UVIndex-ClearSky_Sfc_LatLon0.15_PT073H.grib2 2026-04-22 04:58 1.0M
20260422T00Z_MSC_GDPS_UVIndex_Sfc_LatLon0.15_PT073H.grib2 2026-04-22 04:58 1.5M
20260422T00Z_MSC_GDPS_UpwardLongwaveRadiationFlux_NTAtm_LatLon0.15_PT073H.grib2 2026-04-22 04:13 1.1M
20260422T00Z_MSC_GDPS_WindDir_AGL-10m_LatLon0.15_PT073H.grib2 2026-04-22 04:13 1.3M
20260422T00Z_MSC_GDPS_WindDir_AGL-120m_LatLon0.15_PT073H.grib2 2026-04-22 04:13 1.4M
20260422T00Z_MSC_GDPS_WindDir_AGL-40m_LatLon0.15_PT073H.grib2 2026-04-22 04:13 1.4M
20260422T00Z_MSC_GDPS_WindDir_AGL-80m_LatLon0.15_PT073H.grib2 2026-04-22 04:13 1.4M
20260422T00Z_MSC_GDPS_WindDir_IsbL-0700_LatLon0.15_PT073H.grib2 2026-04-22 04:13 1.6M
20260422T00Z_MSC_GDPS_WindGust-Max_AGL-10m_LatLon0.15_PT073H.grib2 2026-04-22 04:13 2.2M
20260422T00Z_MSC_GDPS_WindGust-Min_AGL-10m_LatLon0.15_PT073H.grib2 2026-04-22 04:13 2.2M
20260422T00Z_MSC_GDPS_WindGust_AGL-10m_LatLon0.15_PT073H.grib2 2026-04-22 04:13 2.2M
20260422T00Z_MSC_GDPS_WindSpeed_AGL-10m_LatLon0.15_PT073H.grib2 2026-04-22 04:13 1.1M
20260422T00Z_MSC_GDPS_WindSpeed_AGL-120m_LatLon0.15_PT073H.grib2 2026-04-22 04:13 1.2M
20260422T00Z_MSC_GDPS_WindSpeed_AGL-40m_LatLon0.15_PT073H.grib2 2026-04-22 04:13 1.2M
20260422T00Z_MSC_GDPS_WindSpeed_AGL-80m_LatLon0.15_PT073H.grib2 2026-04-22 04:13 1.2M
20260422T00Z_MSC_GDPS_WindSpeed_IsbL-0700_LatLon0.15_PT073H.grib2 2026-04-22 04:13 1.5M
20260422T00Z_MSC_GDPS_WindU_AGL-10m_LatLon0.15_PT073H.grib2 2026-04-22 04:13 1.3M
20260422T00Z_MSC_GDPS_WindU_AGL-120m_LatLon0.15_PT073H.grib2 2026-04-22 04:13 1.0M
20260422T00Z_MSC_GDPS_WindU_AGL-40m_LatLon0.15_PT073H.grib2 2026-04-22 04:13 967K
20260422T00Z_MSC_GDPS_WindU_AGL-80m_LatLon0.15_PT073H.grib2 2026-04-22 04:13 1.0M
20260422T00Z_MSC_GDPS_WindU_IsbL-0700_LatLon0.15_PT073H.grib2 2026-04-22 04:13 1.2M
20260422T00Z_MSC_GDPS_WindV_AGL-10m_LatLon0.15_PT073H.grib2 2026-04-22 04:13 1.6M
20260422T00Z_MSC_GDPS_WindV_AGL-120m_LatLon0.15_PT073H.grib2 2026-04-22 04:13 1.2M
20260422T00Z_MSC_GDPS_WindV_AGL-40m_LatLon0.15_PT073H.grib2 2026-04-22 04:13 1.2M
20260422T00Z_MSC_GDPS_WindV_AGL-80m_LatLon0.15_PT073H.grib2 2026-04-22 04:13 1.2M
20260422T00Z_MSC_GDPS_WindV_IsbL-0700_LatLon0.15_PT073H.grib2 2026-04-22 04:13 1.2M